Weather History for Sedalia, MO

Change the Weather History Date:

Friday, January 4, 2013

  Actual Average Record
Temperature  
Mean Temperature 29 °F 31 °F  
Max Temperature 40 °F 40 °F 73 °F (1939)
Min Temperature 18 °F 23 °F -13 °F (1947)
Degree Days  
Heating Degree Days 36 34  
Month to date heating degree days 163 134  
Since 1 July heating degree days 1827 1915  
Cooling Degree Days 0 0  
Month to date cooling degree days 0 0  
Year to date cooling degree days 0 0  
Moisture  
Dew Point 21 °F    
Average Humidity 71    
Maximum Humidity 92    
Minimum Humidity 50    
Precipitation  
Precipitation 0.00 in 0.05 in 1.00 in (1982)
Month to date precipitation 0.00 0.20  
Year to date precipitation 0.00 0.20  
Sea Level Pressure  
Sea Level Pressure 30.38 in    
Wind  
Wind Speed 9 mph (SW)    
Max Wind Speed 17 mph    
Max Gust Speed 22 mph    
Visibility 9 miles    
Events      
T = Trace of Precipitation, MM = Missing Value Source: NWS Daily Summary

Daily Weather History Graph

Daily Weather History Graph

Search for Another Location

Airport:

Trip Planner

Search our weather history database for the weather conditions in past years. The results will help you decide how hot, cold, wet, or windy it might be!

Date:

Astronomy

Jan. 04, 2013 Rise Set
Actual Time 7:31 AM CST 5:04 PM CST
Civil Twilight 7:01 AM CST 5:34 PM CST
Nautical Twilight 6:28 AM CST 6:07 PM CST
Astronomical Twilight 5:56 AM CST 6:39 PM CST
Moon No Moon Rise 11:19 AM CST (1/4)
Length of Visible Light 10h 33m
Length of Day
9h 33m
Waning Gibbous, 55% of the Moon is Illuminated
Jan 4
Waning Gibbous
Jan 4
Last Quarter
Jan 11
New
Jan 18
First Quarter
Jan 26
Full

Hourly Weather History & Observations

Time (CST) Temp. Windchill Dew Point Humidity Pressure Visibility Wind Dir Wind Speed Gust Speed Precip Events Conditions
12:53 AM 24.1 °F 17.0 °F 19.9 °F 84% 30.43 in 9.0 mi SW 5.8 mph - N/A   Clear
1:53 AM 23.0 °F 13.9 °F 19.9 °F 88% 30.42 in 9.0 mi SSW 8.1 mph - N/A   Clear
2:53 AM 21.0 °F 16.2 °F 18.0 °F 88% 30.45 in 9.0 mi West 3.5 mph - N/A   Clear
3:53 AM 21.0 °F 16.2 °F 17.1 °F 85% 30.44 in 10.0 mi WSW 3.5 mph - N/A   Clear
4:53 AM 19.9 °F 11.1 °F 17.1 °F 89% 30.42 in 8.0 mi SW 6.9 mph - N/A   Clear
6:53 AM 19.0 °F 10.0 °F 17.1 °F 92% 30.43 in 7.0 mi SSW 6.9 mph - N/A   Clear
7:53 AM 19.9 °F 9.3 °F 18.0 °F 92% 30.44 in 5.0 mi SSW 9.2 mph - N/A   Clear
8:53 AM 21.9 °F 11.7 °F 19.0 °F 89% 30.44 in 5.0 mi SSW 9.2 mph - N/A   Clear
9:53 AM 28.9 °F 19.2 °F 23.0 °F 78% 30.44 in 10.0 mi SW 11.5 mph - N/A   Clear
10:53 AM 30.9 °F 21.7 °F 23.0 °F 72% 30.45 in 10.0 mi SW 11.5 mph 19.6 mph N/A   Clear
11:53 AM 34.0 °F 25.0 °F 21.9 °F 61% 30.42 in 10.0 mi SW 12.7 mph - N/A   Clear
12:53 PM 36.0 °F 27.1 °F 24.1 °F 62% 30.38 in 10.0 mi SSW 13.8 mph - N/A   Clear
1:53 PM 37.9 °F 29.2 °F 21.9 °F 53% 30.36 in 10.0 mi SSW 15.0 mph - N/A   Clear
2:53 PM 39.9 °F 34.5 °F 23.0 °F 51% 30.35 in 10.0 mi SW 8.1 mph - N/A   Clear
3:53 PM 39.9 °F 35.8 °F 24.1 °F 53% 30.34 in 10.0 mi SW 5.8 mph - N/A   Clear
4:53 PM 37.9 °F 32.7 °F 24.1 °F 57% 30.33 in 10.0 mi SSW 6.9 mph - N/A   Clear
5:53 PM 36.0 °F 30.3 °F 24.1 °F 62% 30.33 in 10.0 mi SSW 6.9 mph - N/A   Clear
6:53 PM 34.0 °F 28.8 °F 23.0 °F 64% 30.34 in 10.0 mi SSW 5.8 mph - N/A   Clear
7:53 PM 33.1 °F 26.1 °F 21.9 °F 64% 30.33 in 10.0 mi SSW 8.1 mph - N/A   Clear
8:53 PM 35.1 °F 27.9 °F 24.1 °F 64% 30.32 in 10.0 mi SSW 9.2 mph - N/A   Clear
9:53 PM 35.1 °F 27.4 °F 23.0 °F 61% 30.31 in 10.0 mi SSW 10.4 mph - N/A   Clear
10:53 PM 34.0 °F 26.6 °F 23.0 °F 64% 30.31 in 10.0 mi SSW 9.2 mph - N/A   Clear
11:53 PM 34.0 °F 26.0 °F 23.0 °F 64% 30.30 in 10.0 mi SSW 10.4 mph - N/A   Clear